Regional Weather Roundup
Issued by NWS

Home | Current Version | Previous Version | Text Only | Print | Product List | Glossary Off
Versions: 1 2 3 4 5 6 7 8 9 10 11 12 13 14 15 16 17 18 19 20 21 22 23 24 25 26 27 28 29 30 31 32 33 34 35 36 37 38 39 40 41 42 43 44 45 46 47 48 49 50

000
ASUS43 KBIS 030810
RWRND

NORTH DAKOTA REGIONAL WEATHER ROUNDUP
NATIONAL WEATHER SERVICE BISMARCK ND
300 AM CDT THU SEP 03 2015

NOTE: "FAIR" INDICATES FEW OR NO CLOUDS BELOW 12,000 FEET WITH NO
SIGNIFICANT WEATHER AND/OR OBSTRUCTIONS TO VISIBILITY.


NDZ001>003-009>011-017-030900-
NORTHWEST NORTH DAKOTA

CITY           SKY/WX    TMP DP  RH WIND       PRES   REMARKS
WILLISTON      MOCLDY    67  54  63 CALM      29.64S
MINOT          MOCLDY    71  67  87 SE9       29.67F
MINOT AFB      PTCLDY    66  66 100 SE9       29.66F
$$

NDZ018>021-031>035-040>046-030900-
SOUTHWEST NORTH DAKOTA

CITY           SKY/WX    TMP DP  RH WIND       PRES   REMARKS
BISMARCK       PTCLDY    70  69  97 E7        29.70F
DICKINSON      CLEAR     68  59  73 SE10      29.68F
GARRISON         N/A     72  67  84 SE12      29.69F
HETTINGER ARPT CLEAR     66  59  78 E7        29.72F
$$

NDZ004>008-012>016-024-026-027-054-030900-
NORTHEAST NORTH DAKOTA

CITY           SKY/WX    TMP DP  RH WIND       PRES   REMARKS
GRAND FORKS    CLEAR     70  67  90 SE13      29.78F
GRND FRKS AFB  CLEAR     69  67  93 S8        29.79S
DEVILS LAKE    CLOUDY    72  66  83 SE12      29.75S
$$

NDZ022-023-025-028>030-036>039-047>053-030900-
SOUTHEAST NORTH DAKOTA

CITY           SKY/WX    TMP DP  RH WIND       PRES   REMARKS
FARGO          CLEAR     72  68  87 SE14G20   29.80S
JAMESTOWN      CLOUDY    73  71  93 SE10      29.75F FOG
$$



USA.gov is the U.S. government's official web portal to all federal, state and local government web resources and services.